sat.trackr.live / text

‹ back to catalog

TIANHUI 5C

NORAD 60211 · 2024-126A

PAYLOAD ACTIVE UNKNOWN

§ Identity

Operator
Country
PRC
Launch date
2024-07-04
Launch site
TAISC
Launch vehicle
Mass (kg)
RCS (m²)

External: N2YO · Heavens-Above · Gunter

§ Orbital elements

Epoch: 2026-05-24T10:08:09.579840Z

Period
96.80 min
Inclination
97.8222°
Eccentricity
0.0001676
Mean motion
14.87573038 rev/d
Perigee alt
604.4 km
Apogee alt
606.7 km
Semi-major
6,983.7 km
B*
3.9072e-5
RAAN
152.3155°
Arg perigee
96.6966°
Mean anomaly
263.4441°
Rev number
10,235

§ Raw data

TIANHUI 5C1 60211U 24126A   26144.42233310  .00000301  00000+0  39072-4 0  99982 60211  97.8222 152.3155 0001676  96.6966 263.4441 14.87573038102357

JSON: /api/v1/satellites/60211 · /tle

For live sub-satellite position, see the globe view (requires WebGL).

§ Visibility from observer

Set your observer location to see the next 7 days of passes ≥ 10°. The values pass through the URL so the page stays shareable.

No JS? Fill the form by hand. The geolocation button needs JavaScript.